Weather History for Burley, ID

Change the Weather History Date:

Monday, January 21, 2013

  Actual Average Record
Temperature  
Mean Temperature 8 °F 27 °F  
Max Temperature 22 °F 35 °F 53 °F (1994)
Min Temperature -6 °F 19 °F -24 °F (1962)
Degree Days  
Heating Degree Days 57 38  
Month to date heating degree days 1155 810  
Since 1 July heating degree days 3502 3690  
Cooling Degree Days 0 0  
Month to date cooling degree days 0 0  
Year to date cooling degree days 0 0  
Moisture  
Dew Point 0 °F    
Average Humidity 81    
Maximum Humidity 95    
Minimum Humidity 67    
Precipitation  
Precipitation T in 0.02 in 0.65 in (2012)
Month to date precipitation 0.07 0.65  
Year to date precipitation 0.07 0.65  
Sea Level Pressure  
Sea Level Pressure 30.54 in    
Wind  
Wind Speed 2 mph (NNE)    
Max Wind Speed 9 mph    
Max Gust Speed 12 mph    
Visibility 6 miles    
Events Snow    
T = Trace of Precipitation, MM = Missing Value Source: NWS Daily Summary

Daily Weather History Graph

Daily Weather History Graph

Search for Another Location

Airport:

Trip Planner

Search our weather history database for the weather conditions in past years. The results will help you decide how hot, cold, wet, or windy it might be!

Date:

Astronomy

Jan. 21, 2013 Rise Set
Actual Time 7:58 AM MST 5:35 PM MST
Civil Twilight 7:27 AM MST 6:05 PM MST
Nautical Twilight 6:53 AM MST 6:40 PM MST
Astronomical Twilight 6:19 AM MST 7:13 PM MST
Moon 1:17 PM MST (1/21) 3:30 AM MST (1/21)
Length of Visible Light 10h 37m
Length of Day
9h 36m
Waxing Gibbous, 75% of the Moon is Illuminated
Jan 21
Waxing Gibbous
Jan 26
Full
Feb 3
Last Quarter
Feb 10
New
Feb 17
First Quarter

Hourly Weather History & Observations

Time (MST) Temp. Windchill Dew Point Humidity Pressure Visibility Wind Dir Wind Speed Gust Speed Precip Events Conditions
12:49 AM -2.2 °F - -5.8 °F 85% 30.44 in 4.0 mi Calm Calm - N/A   Partly Cloudy
12:53 AM -2.0 °F - -6.0 °F 83% 30.66 in 4.0 mi Calm Calm - N/A   Partly Cloudy
1:53 AM -4.0 °F - -6.0 °F 91% 30.65 in 5.0 mi Calm Calm - N/A   Clear
2:53 AM -2.9 °F -11.2 °F -6.0 °F 87% 30.66 in 6.0 mi NW 3.5 mph - N/A   Partly Cloudy
3:50 AM -2.2 °F -10.4 °F -5.8 °F 85% 30.42 in 7.0 mi North 3.5 mph - N/A   Mostly Cloudy
3:53 AM -2.0 °F - -5.1 °F 87% 30.63 in 7.0 mi Calm Calm - N/A   Mostly Cloudy
4:32 AM -4.0 °F - -7.6 °F 85% 30.41 in 5.0 mi Calm Calm - N/A   Scattered Clouds
4:53 AM -4.0 °F -12.4 °F -8.0 °F 83% 30.62 in 5.0 mi North 3.5 mph - N/A   Partly Cloudy
5:30 AM -4.0 °F - -7.6 °F 85% 30.42 in 5.0 mi Calm Calm - N/A   Mostly Cloudy
5:39 AM -4.0 °F - -7.6 °F 85% 30.42 in 5.0 mi Calm Calm - N/A   Scattered Clouds
5:53 AM -5.1 °F - -9.0 °F 83% 30.65 in 5.0 mi Calm Calm - N/A   Partly Cloudy
6:53 AM -2.0 °F -12.2 °F -6.0 °F 83% 30.65 in 8.0 mi West 4.6 mph - 0.00 in   Clear
7:13 AM -0.4 °F -8.3 °F -4.0 °F 85% 30.42 in 7.0 mi NW 3.5 mph - N/A   Partly Cloudy
7:53 AM -2.9 °F - -6.0 °F 87% 30.69 in 8.0 mi Calm Calm - N/A   Clear
8:53 AM -0.0 °F -7.9 °F -4.0 °F 83% 30.66 in 5.0 mi ENE 3.5 mph - N/A   Clear
9:53 AM 1.0 °F - -0.9 °F 91% 30.68 in 5.0 mi Calm Calm - N/A   Clear
10:38 AM 8.6 °F 2.0 °F 3.2 °F 79% 30.43 in 6.0 mi North 3.5 mph - 0.00 in Snow Light Snow
10:53 AM 10.0 °F 1.8 °F 3.9 °F 76% 30.65 in 7.0 mi NNE 4.6 mph - 0.00 in   Clear
11:02 AM 12.2 °F 6.1 °F 5.0 °F 73% 30.42 in 8.0 mi NE 3.5 mph - N/A   Partly Cloudy
11:53 AM 16.0 °F 7.4 °F 8.1 °F 71% 30.62 in 10.0 mi NNE 5.8 mph - N/A   Clear
12:53 PM 17.1 °F 6.6 °F 9.0 °F 71% 30.59 in 10.0 mi ENE 8.1 mph - N/A   Clear
1:53 PM 18.0 °F 7.7 °F 10.9 °F 74% 30.58 in 9.0 mi NE 8.1 mph - N/A   Clear
2:53 PM 21.0 °F 14.6 °F 12.0 °F 68% 30.54 in 10.0 mi NNE 4.6 mph - N/A   Clear
3:53 PM 21.9 °F 17.2 °F 12.9 °F 68% 30.52 in 10.0 mi NNE 3.5 mph - N/A   Clear
4:53 PM 21.0 °F 16.2 °F 12.9 °F 71% 30.51 in 8.0 mi North 3.5 mph - N/A   Clear
5:53 PM 10.9 °F - 6.1 °F 81% 30.55 in 7.0 mi Calm Calm - N/A   Clear
6:53 PM 8.1 °F - 5.0 °F 87% 30.55 in 7.0 mi Calm Calm - N/A   Clear
7:53 PM 5.0 °F - 1.9 °F 87% 30.56 in 5.0 mi Calm Calm - N/A   Clear
8:53 PM 3.0 °F - 1.0 °F 91% 30.56 in 5.0 mi Calm Calm - N/A   Partly Cloudy
9:25 PM 3.2 °F - -0.4 °F 85% 30.32 in 6.0 mi Calm Calm - N/A   Mostly Cloudy
9:51 PM 1.4 °F - -0.4 °F 92% 30.32 in 4.0 mi Calm Calm - N/A   Scattered Clouds
9:53 PM 1.9 °F - -0.9 °F 88% 30.56 in 4.0 mi Calm Calm - N/A   Scattered Clouds
10:53 PM 1.0 °F - -0.9 °F 91% 30.54 in 7.0 mi Calm Calm - N/A   Mostly Cloudy
11:19 PM -0.4 °F - -2.2 °F 92% 30.33 in 6.0 mi Calm Calm - N/A   Scattered Clouds
11:53 PM -2.0 °F - -5.1 °F 87% 30.55 in 6.0 mi Calm Calm - N/A   Mostly Cloudy